Regional Weather Roundup
Issued by NWS

Home | Current Version | Previous Version | Graphics & Text | Print | Product List | Glossary Off
Versions: 1 2 3 4 5 6 7 8 9 10 11 12 13 14 15 16 17 18 19 20 21 22 23 24 25 26 27 28 29 30 31 32 33 34 35 36 37 38 39 40 41 42 43 44 45 46 47 48 49 50

000
ASUS43 KLSX 221507
RWRMO

WEATHER SUMMARY FOR MISSOURI
NATIONAL WEATHER SERVICE SPRINGFIELD MO
1000 AM CDT TUE APR 22 2014

NOTE: "FAIR" INDICATES FEW OR NO CLOUDS BELOW 12,000 FEET WITH NO
       SIGNIFICANT WEATHER AND/OR OBSTRUCTIONS TO VISIBILITY.
       CURRENT SKY AND/OR WEATHER CONDITIONS ARE NOT AVAILABLE FOR
       CHILLICOTHE AND FARMINGTON.

MOZ001>031-035>038-043-044-053-054-221600-
...NORTHERN AND WESTERN MISSOURI...

CITY           SKY/WX    TMP DP  RH WIND       PRES   REMARKS
KANSAS CTY INT MOSUNNY   55  32  41 NE12      30.15F
KANSAS C DTWN  SUNNY     57  31  37 N12       30.14F
LEE`S SUMMIT   SUNNY     55  32  41 NE15      30.15S
ST JOSEPH      SUNNY     56  30  37 NE10      30.16S
CHILLICOTHE      N/A     53  33  46 N12       30.15S
KIRKSVILLE     SUNNY     53  34  48 N14       30.12S

$$
MOZ066>068-077>081-088>096-101>105-221600-
...SOUTHWEST MISSOURI...

CITY           SKY/WX    TMP DP  RH WIND       PRES   REMARKS
SPRINGFIELD    SUNNY     57  41  55 NE13      30.08S
JOPLIN         SUNNY     57  39  51 NE10      30.12R

$$
MOZ032>034-039>042-045>050-055>058-069>072-221600-
...CENTRAL MISSOURI...

CITY           SKY/WX    TMP DP  RH WIND       PRES   REMARKS
COLUMBIA       SUNNY     54  41  61 N12       30.10R
JEFFERSON CITY SUNNY     56  39  53 N9        30.10S
ROLLA          SUNNY     56  41  57 N9        30.05S
SEDALIA        SUNNY     56  38  50 N9        30.13R
WHITEMAN AFB   SUNNY     53  34  47 NE12      30.14R
OSAGE BEACH    SUNNY     55  36  47 N7        30.11R

$$
MOZ051-052-059>065-221600-
...EAST CENTRAL MISSOURI...

CITY           SKY/WX    TMP DP  RH WIND       PRES   REMARKS
ST LOUIS INTL  MOSUNNY   58  39  49 N15       30.04R
SPIRIT OF STL  SUNNY     57  40  52 N10       30.05R
ST CHARLES     SUNNY     58  41  53 N16       30.04R

$$
MOZ072>076-082>087-097>100-106>115-221600-
...SOUTH CENTRAL AND SOUTHEAST MISSOURI...

CITY           SKY/WX    TMP DP  RH WIND       PRES   REMARKS
CAPE GIRARDEAU SUNNY     63  48  58 NW14      29.97R
FARMINGTON     SUNNY     57  45  62 NW9       30.04R
POPLAR BLUFF   SUNNY     66  47  50 N14       29.97R
WEST PLAINS    SUNNY     61  40  45 N12G20    30.05R

$$



USA.gov is the U.S. government's official web portal to all federal, state and local government web resources and services.